Weather History for Walden-Jackson Cnty AP, Walde, CO

Change the Weather History Date:

Tuesday, June 3, 2014

  Actual Average (KSBS) Record (KSBS)
Temperature  
Mean Temperature 55 °F -  
Max Temperature 69 °F 72 °F 85 °F (2012)
Min Temperature 41 °F 33 °F 23 °F (1929)
Degree Days  
Heating Degree Days 10    
Growing Degree Days 5 (Base 50)    
Moisture  
Dew Point 30 °F    
Average Humidity 42    
Maximum Humidity 81    
Minimum Humidity 16    
Precipitation  
Precipitation 0.00 in - - ()
Sea Level Pressure  
Sea Level Pressure 30.09 in    
Wind  
Wind Speed 8 mph (SSW)    
Max Wind Speed 28 mph    
Max Gust Speed 37 mph    
Visibility 10 miles    
Events      
Averages and records for this station are not official NWS values.
T = Trace of Precipitation, MM = Missing Value Source: NWS Daily Summary

Daily Weather History Graph

Daily Weather History Graph

Search for Another Location

Airport:

Trip Planner

Search our weather history database for the weather conditions in past years. The results will help you decide how hot, cold, wet, or windy it might be!

Date:

Astronomy

Jun. 03, 2014 Rise Set
Actual Time 5:35 AM MDT 8:31 PM MDT
Civil Twilight 5:02 AM MDT 9:04 PM MDT
Nautical Twilight 4:20 AM MDT 9:46 PM MDT
Astronomical Twilight 3:32 AM MDT 10:34 PM MDT
Moon 11:02 AM MDT (6/3) 12:00 AM MDT (6/3)
Length of Visible Light 16h 02m
Length of Day
14h 56m
Waxing Crescent, 30% of the Moon is Illuminated
Jun 3
Waxing Crescent
Jun 5
First Quarter
Jun 12
Full
Jun 19
Last Quarter
Jun 27
New

Hourly Weather History & Observations

Time (MDT) Temp. Windchill Dew Point Humidity Pressure Visibility Wind Dir Wind Speed Gust Speed Precip Events Conditions
12:16 AM 50.0 °F - 35.6 °F 58% 30.16 in 10.0 mi SE 4.6 mph - N/A   Clear
12:36 AM 46.4 °F - 35.6 °F 66% 30.15 in 10.0 mi Calm Calm - N/A   Clear
12:56 AM 46.4 °F - 33.8 °F 62% 30.14 in 10.0 mi Calm Calm - N/A   Clear
1:15 AM 46.4 °F - 33.8 °F 62% 30.13 in 10.0 mi Calm Calm - N/A   Clear
1:35 AM 46.4 °F 43.5 °F 35.6 °F 66% 30.13 in 10.0 mi ESE 5.8 mph - N/A   Clear
1:56 AM 44.6 °F 42.2 °F 32.0 °F 61% 30.12 in 10.0 mi East 4.6 mph - N/A   Clear
2:16 AM 42.8 °F - 32.0 °F 66% 30.11 in 10.0 mi Calm Calm - N/A   Clear
2:36 AM 42.8 °F 40.1 °F 32.0 °F 66% 30.11 in 10.0 mi ESE 4.6 mph - N/A   Clear
2:56 AM 42.8 °F 39.3 °F 32.0 °F 66% 30.11 in 10.0 mi East 5.8 mph - N/A   Clear
3:15 AM 42.8 °F 40.1 °F 32.0 °F 66% 30.10 in 10.0 mi East 4.6 mph - N/A   Clear
3:36 AM 44.6 °F 43.1 °F 32.0 °F 61% 30.09 in 10.0 mi East 3.5 mph - N/A   Clear
3:56 AM 44.6 °F 43.1 °F 32.0 °F 61% 30.09 in 10.0 mi SE 3.5 mph - N/A   Clear
4:16 AM 42.8 °F 41.1 °F 33.8 °F 70% 30.08 in 10.0 mi SE 3.5 mph - N/A   Clear
4:35 AM 42.8 °F - 35.6 °F 76% 30.08 in 10.0 mi Calm Calm - N/A   Clear
4:56 AM 44.6 °F - 37.4 °F 76% 30.08 in 10.0 mi Calm Calm - N/A   Clear
5:15 AM 44.6 °F - 37.4 °F 76% 30.08 in 10.0 mi Calm Calm - N/A   Clear
5:35 AM 44.6 °F - 37.4 °F 76% 30.07 in 10.0 mi Calm Calm - N/A   Clear
5:56 AM 42.8 °F - 35.6 °F 76% 30.07 in 10.0 mi Calm Calm - N/A   Clear
6:16 AM 42.8 °F 41.1 °F 37.4 °F 81% 30.08 in 10.0 mi SSE 3.5 mph - N/A   Clear
6:36 AM 46.4 °F 45.2 °F 37.4 °F 71% 30.08 in 10.0 mi South 3.5 mph - N/A   Clear
6:56 AM 50.0 °F - 39.2 °F 66% 30.08 in 10.0 mi SSE 4.6 mph - N/A   Clear
7:16 AM 50.0 °F - 41.0 °F 71% 30.08 in 10.0 mi Calm Calm - N/A   Clear
7:35 AM 50.0 °F - 41.0 °F 71% 30.09 in 10.0 mi Calm Calm - N/A   Clear
7:56 AM 51.8 °F - 37.4 °F 58% 30.09 in 10.0 mi Calm Calm - N/A   Clear
8:15 AM 53.6 °F - 33.8 °F 47% 30.09 in 10.0 mi SSW 4.6 mph - N/A   Clear
8:36 AM 55.4 °F - 33.8 °F 44% 30.09 in 10.0 mi SSW 3.5 mph - N/A   Clear
8:56 AM 60.8 °F - 30.2 °F 31% 30.09 in 10.0 mi SSW 12.7 mph 18.4 mph N/A   Clear
9:16 AM 60.8 °F - 30.2 °F 31% 30.09 in 10.0 mi South 13.8 mph 17.3 mph N/A   Clear
9:36 AM 64.4 °F - 30.2 °F 28% 30.08 in 10.0 mi South 12.7 mph 17.3 mph N/A   Clear
9:55 AM 69.8 °F - 28.4 °F 21% 30.07 in 10.0 mi SSW 24.2 mph 29.9 mph N/A   Clear
10:16 AM 69.8 °F - 26.6 °F 20% 30.07 in 10.0 mi SSW 21.9 mph 28.8 mph N/A   Clear
10:36 AM 69.8 °F - 28.4 °F 21% 30.07 in 10.0 mi SW 21.9 mph 31.1 mph N/A   Scattered Clouds
10:56 AM 69.8 °F - 26.6 °F 20% 30.06 in 10.0 mi SW 25.3 mph 35.7 mph N/A   Mostly Cloudy
11:16 AM 64.4 °F - 28.4 °F 26% 30.06 in 10.0 mi WSW 18.4 mph 28.8 mph N/A   Mostly Cloudy
11:36 AM 69.8 °F - 28.4 °F 21% 30.05 in 10.0 mi SW 25.3 mph 32.2 mph N/A   Scattered Clouds
11:55 AM 69.8 °F - 28.4 °F 21% 30.05 in 10.0 mi SW 24.2 mph 33.4 mph N/A   Scattered Clouds
12:16 PM 64.4 °F - 26.6 °F 24% 30.06 in 10.0 mi WSW 24.2 mph 32.2 mph N/A   Scattered Clouds
12:36 PM 69.8 °F - 23.0 °F 17% 30.06 in 10.0 mi SW 27.6 mph 35.7 mph N/A   Scattered Clouds
12:56 PM 69.8 °F - 23.0 °F 17% 30.06 in 10.0 mi WSW 21.9 mph 36.8 mph N/A   Clear
1:15 PM 69.8 °F - 26.6 °F 20% 30.06 in 10.0 mi WSW 23.0 mph 32.2 mph N/A   Clear
2:16 PM 69.8 °F - 24.8 °F 18% 30.07 in 10.0 mi SW 20.7 mph 35.7 mph N/A   Scattered Clouds
2:36 PM 69.8 °F - 24.8 °F 18% 30.07 in 10.0 mi SW 19.6 mph 27.6 mph N/A   Clear
2:56 PM 69.8 °F - 26.6 °F 20% 30.07 in 10.0 mi WSW 26.5 mph 34.5 mph N/A   Scattered Clouds
3:16 PM 69.8 °F - 24.8 °F 18% 30.08 in 10.0 mi SW 19.6 mph 34.5 mph N/A   Clear
3:35 PM 69.8 °F - 23.0 °F 17% 30.08 in 10.0 mi SW 21.9 mph 29.9 mph N/A   Scattered Clouds
3:55 PM 69.8 °F - 24.8 °F 18% 30.08 in 10.0 mi WSW 21.9 mph 28.8 mph N/A   Scattered Clouds
4:15 PM 69.8 °F - 26.6 °F 20% 30.08 in 10.0 mi WSW 20.7 mph 28.8 mph N/A   Clear
4:35 PM 69.8 °F - 24.8 °F 18% 30.08 in 10.0 mi West 17.3 mph 26.5 mph N/A   Clear
4:56 PM 69.8 °F - 24.8 °F 18% 30.08 in 10.0 mi SW 19.6 mph 26.5 mph N/A   Clear
5:16 PM 69.8 °F - 23.0 °F 17% 30.09 in 10.0 mi WSW 18.4 mph 25.3 mph N/A   Clear
5:36 PM 69.8 °F - 21.2 °F 16% 30.09 in 10.0 mi WSW 19.6 mph 32.2 mph N/A   Clear
5:56 PM 69.8 °F - 23.0 °F 17% 30.09 in 10.0 mi WSW 17.3 mph 25.3 mph N/A   Clear
6:15 PM 69.8 °F - 23.0 °F 17% 30.09 in 10.0 mi SW 18.4 mph 25.3 mph N/A   Clear
6:35 PM 69.8 °F - 23.0 °F 17% 30.09 in 10.0 mi WSW 18.4 mph 23.0 mph N/A   Clear
6:56 PM 66.2 °F - 23.0 °F 19% 30.10 in 10.0 mi WSW 17.3 mph 23.0 mph N/A   Clear
7:16 PM 66.2 °F - 23.0 °F 19% 30.11 in 10.0 mi WSW 11.5 mph 19.6 mph N/A   Clear
7:36 PM 64.4 °F - 26.6 °F 24% 30.11 in 10.0 mi WSW 11.5 mph 17.3 mph N/A   Clear
7:55 PM 60.8 °F - 26.6 °F 27% 30.11 in 10.0 mi WSW 10.4 mph - N/A   Clear
8:16 PM 59.0 °F - 24.8 °F 27% 30.12 in 10.0 mi WSW 10.4 mph - N/A   Clear
8:36 PM 55.4 °F - 24.8 °F 31% 30.13 in 10.0 mi WSW 9.2 mph - N/A   Clear
9:15 PM 53.6 °F - 28.4 °F 38% 30.13 in 10.0 mi SSW 4.6 mph - N/A   Clear
9:35 PM 53.6 °F - 28.4 °F 38% 30.13 in 10.0 mi SW 5.8 mph - N/A   Clear
9:55 PM 53.6 °F - 28.4 °F 38% 30.14 in 10.0 mi South 3.5 mph - N/A   Clear
10:15 PM 50.0 °F - 32.0 °F 50% 30.14 in 10.0 mi ESE 6.9 mph - N/A   Clear
10:35 PM 46.4 °F 41.5 °F 30.2 °F 53% 30.14 in 10.0 mi ESE 10.4 mph - N/A   Clear
11:15 PM 42.8 °F 38.6 °F 32.0 °F 66% 30.15 in 10.0 mi SE 6.9 mph - N/A   Clear
11:35 PM 41.0 °F 35.8 °F 32.0 °F 70% 30.15 in 10.0 mi SE 8.1 mph - N/A   Clear
11:56 PM 41.0 °F 36.4 °F 32.0 °F 70% 30.15 in 10.0 mi SSE 6.9 mph - N/A   Clear